Location: Moscow Pond
(43.6842°N, 73.2366°W)
Time: 05:57:42
(UTC+00:00)

COSMOS 2428 - Pass Details

Date: 08 November 2025
Orbit: 847 x 852 km, 70.9° (Epoch: 06 December)

Event Time Altitude Azimuth Distance (km) Brightness Sun altitude
Exits shadow 09:47:46 21° 222° (SW) 1,809 4.1 -20.2°
Maximum altitude 09:51:33 63° 298° (WNW) 946 2.6 -19.5°
Drops below altitude 10° 09:57:12 10° 19° (NNE) 2,479 5.3 -18.5°
Sets 09:59:42 0° 23° (NNE) 3,418 6.1 -18.1°
